When you browse on this site, cookies collect data to enhance your experience and personalize the content and advertising you see.
Visit our Privacy Policy to learn more. By continuing to use the site, you agree to this use of cookies and data.

Meteo pe oră la San Cristóbal

Astăzi, 4 Iulie, Sâmbătă

Timp Temperatura Precipitaţii Vânt Presiune Umiditate
00:00 +21°C° 0.9 mm 1 m/s 671 mmHg 93%
01:00 +21°C° 0.9 mm 1 m/s 671 mmHg 95%
02:00 +20°C° 0.3 mm 1 m/s 671 mmHg 94%
03:00 +20°C° 0.3 mm 1 m/s 671 mmHg 94%
04:00 +20°C° 0.3 mm 1 m/s 671 mmHg 93%
05:00 +21°C° 0.1 mm 1 m/s 671 mmHg 92%
06:00 +21°C° 0.1 mm 1 m/s 672 mmHg 91%
07:00 +21°C° 0.1 mm 1 m/s 672 mmHg 90%
08:00 +21°C° 0.4 mm 2 m/s 672 mmHg 87%
09:00 +23°C° 0.4 mm 2 m/s 673 mmHg 84%
10:00 +24°C° 0.4 mm 2 m/s 673 mmHg 82%
11:00 +24°C° 0.4 mm 2 m/s 673 mmHg 79%
12:00 +25°C° 0.4 mm 2 m/s 672 mmHg 77%
13:00 +25°C° 0.4 mm 2 m/s 672 mmHg 74%
14:00 +25°C° 0.2 mm 2 m/s 672 mmHg 75%
15:00 +24°C° 0.2 mm 1 m/s 671 mmHg 76%
16:00 +24°C° 0.2 mm 1 m/s 670 mmHg 77%
17:00 +23°C° 0.1 mm 1 m/s 670 mmHg 79%
18:00 +22°C° 0.1 mm 1 m/s 670 mmHg 82%
19:00 +21°C° 0.1 mm 1 m/s 671 mmHg 84%
20:00 +21°C° 0 mm 1 m/s 671 mmHg 81%
21:00 +21°C° 0 mm 1 m/s 671 mmHg 78%
22:00 +21°C° 0 mm 1 m/s 672 mmHg 75%
23:00 +21°C° 0 mm 1 m/s 672 mmHg 74%

Mâine, 5 Iulie, Duminică

Timp Temperatura Precipitaţii Vânt Presiune Umiditate
00:00 +20°C° 0 mm 1 m/s 672 mmHg 72%
01:00 +20°C° 0 mm 1 m/s 671 mmHg 70%
02:00 +20°C° 0 mm 1 m/s 671 mmHg 69%
03:00 +20°C° 0 mm 1 m/s 671 mmHg 67%
04:00 +19°C° 0 mm 1 m/s 671 mmHg 66%
05:00 +20°C° 0 mm 1 m/s 671 mmHg 63%
06:00 +21°C° 0 mm 1 m/s 672 mmHg 60%
07:00 +22°C° 0 mm 1 m/s 672 mmHg 57%
08:00 +24°C° 0 mm 1 m/s 673 mmHg 50%
09:00 +26°C° 0 mm 2 m/s 673 mmHg 44%
10:00 +29°C° 0 mm 2 m/s 674 mmHg 37%
11:00 +29°C° 0 mm 2 m/s 673 mmHg 37%
12:00 +30°C° 0 mm 2 m/s 673 mmHg 38%
13:00 +30°C° 0 mm 3 m/s 673 mmHg 38%
14:00 +29°C° 0 mm 2 m/s 672 mmHg 42%
15:00 +29°C° 0 mm 2 m/s 671 mmHg 46%
16:00 +28°C° 0 mm 2 m/s 671 mmHg 50%
17:00 +26°C° 0.1 mm 1 m/s 671 mmHg 62%
18:00 +23°C° 0.1 mm 1 m/s 671 mmHg 75%
19:00 +21°C° 0.1 mm 1 m/s 671 mmHg 87%
20:00 +21°C° 0 mm 1 m/s 671 mmHg 86%
21:00 +20°C° 0 mm 1 m/s 671 mmHg 85%
22:00 +20°C° 0 mm 1 m/s 672 mmHg 83%
23:00 +20°C° 0 mm 1 m/s 672 mmHg 81%

Poimâine, 6 Iulie, Luni

Timp Temperatura Precipitaţii Vânt Presiune Umiditate
00:00 +19°C° 0 mm 1 m/s 671 mmHg 79%
01:00 +19°C° 0 mm 1 m/s 671 mmHg 76%
02:00 +19°C° 0 mm 1 m/s 671 mmHg 77%
03:00 +19°C° 0 mm 1 m/s 671 mmHg 78%
04:00 +19°C° 0 mm 1 m/s 671 mmHg 79%
05:00 +20°C° 0 mm 1 m/s 671 mmHg 75%
06:00 +21°C° 0 mm 1 m/s 672 mmHg 71%
07:00 +22°C° 0 mm 1 m/s 672 mmHg 67%
08:00 +23°C° 0.1 mm 1 m/s 673 mmHg 66%
09:00 +24°C° 0.1 mm 2 m/s 673 mmHg 65%
10:00 +25°C° 0.1 mm 2 m/s 674 mmHg 64%
11:00 +23°C° 0.9 mm 2 m/s 673 mmHg 73%
12:00 +22°C° 0.9 mm 1 m/s 672 mmHg 82%
13:00 +21°C° 0.9 mm 1 m/s 672 mmHg 91%
14:00 +21°C° 1.1 mm 1 m/s 671 mmHg 91%
15:00 +21°C° 1.1 mm 1 m/s 671 mmHg 91%
16:00 +21°C° 1.1 mm 1 m/s 671 mmHg 92%
17:00 +20°C° 0.2 mm 1 m/s 671 mmHg 92%
18:00 +20°C° 0.2 mm 1 m/s 671 mmHg 93%
19:00 +20°C° 0.2 mm 1 m/s 671 mmHg 94%
20:00 +20°C° 0.2 mm 1 m/s 672 mmHg 93%
21:00 +20°C° 0.2 mm 1 m/s 672 mmHg 92%
22:00 +20°C° 0.2 mm 1 m/s 672 mmHg 92%
23:00 +20°C° 0.1 mm 1 m/s 672 mmHg 91%

7 Iulie, Marţi

Timp Temperatura Precipitaţii Vânt Presiune Umiditate
00:00 +20°C° 0.1 mm 1 m/s 672 mmHg 91%
01:00 +20°C° 0.1 mm 1 m/s 671 mmHg 91%
02:00 +18°C° 0.1 mm 0 m/s 671 mmHg 90%
03:00 +18°C° 0.1 mm 0 m/s 671 mmHg 90%
04:00 +18°C° 0.1 mm 0 m/s 671 mmHg 90%
05:00 +18°C° 0 mm 0 m/s 671 mmHg 89%
06:00 +19°C° 0 mm 0 m/s 671 mmHg 88%
07:00 +19°C° 0 mm 0 m/s 672 mmHg 87%
08:00 +21°C° 0.4 mm 1 m/s 672 mmHg 88%
09:00 +21°C° 0.4 mm 1 m/s 673 mmHg 89%
10:00 +22°C° 0.4 mm 1 m/s 673 mmHg 89%
11:00 +22°C° 1 mm 1 m/s 672 mmHg 89%
12:00 +21°C° 1 mm 2 m/s 672 mmHg 89%
13:00 +21°C° 1 mm 2 m/s 672 mmHg 89%
14:00 +21°C° 0.6 mm 2 m/s 671 mmHg 90%
15:00 +21°C° 0.6 mm 1 m/s 671 mmHg 91%
16:00 +21°C° 0.6 mm 1 m/s 670 mmHg 91%
17:00 +21°C° 0 mm 1 m/s 670 mmHg 91%
18:00 +21°C° 0 mm 1 m/s 670 mmHg 91%
19:00 +20°C° 0 mm 1 m/s 670 mmHg 90%
20:00 +20°C° 0 mm 1 m/s 671 mmHg 88%
21:00 +20°C° 0 mm 1 m/s 671 mmHg 86%
22:00 +20°C° 0 mm 1 m/s 672 mmHg 85%
23:00 +20°C° 0 mm 1 m/s 672 mmHg 84%

8 Iulie, Miercuri

Timp Temperatura Precipitaţii Vânt Presiune Umiditate
00:00 +20°C° 0 mm 1 m/s 671 mmHg 83%
01:00 +18°C° 0 mm 0 m/s 671 mmHg 82%
02:00 +20°C° 0 mm 1 m/s 671 mmHg 81%
03:00 +20°C° 0 mm 1 m/s 671 mmHg 81%
04:00 +20°C° 0 mm 1 m/s 671 mmHg 80%
05:00 +21°C° 0 mm 1 m/s 671 mmHg 78%
06:00 +21°C° 0 mm 1 m/s 671 mmHg 77%
07:00 +21°C° 0 mm 1 m/s 672 mmHg 76%
08:00 +23°C° 0 mm 1 m/s 672 mmHg 69%
09:00 +25°C° 0 mm 2 m/s 673 mmHg 63%
10:00 +27°C° 0 mm 2 m/s 674 mmHg 57%
11:00 +27°C° 0.2 mm 2 m/s 673 mmHg 58%
12:00 +27°C° 0.2 mm 2 m/s 673 mmHg 59%
13:00 +27°C° 0.2 mm 2 m/s 672 mmHg 60%
14:00 +27°C° 0.3 mm 2 m/s 672 mmHg 63%
15:00 +26°C° 0.3 mm 2 m/s 671 mmHg 66%
16:00 +26°C° 0.3 mm 1 m/s 671 mmHg 69%
17:00 +24°C° 0.3 mm 1 m/s 671 mmHg 76%
18:00 +23°C° 0.3 mm 1 m/s 670 mmHg 84%
19:00 +21°C° 0.3 mm 1 m/s 670 mmHg 91%
20:00 +21°C° 0 mm 1 m/s 671 mmHg 90%
21:00 +20°C° 0 mm 1 m/s 671 mmHg 88%
22:00 +20°C° 0 mm 1 m/s 672 mmHg 86%
23:00 +20°C° 0 mm 1 m/s 672 mmHg 85%

9 Iulie, Joi

Timp Temperatura Precipitaţii Vânt Presiune Umiditate
00:00 +20°C° 0 mm 1 m/s 671 mmHg 83%
01:00 +20°C° 0 mm 1 m/s 671 mmHg 81%
02:00 +20°C° 0.1 mm 1 m/s 671 mmHg 81%
03:00 +21°C° 0.1 mm 1 m/s 671 mmHg 80%
04:00 +21°C° 0.1 mm 1 m/s 671 mmHg 79%
05:00 +21°C° 0.1 mm 1 m/s 672 mmHg 80%
06:00 +20°C° 0.1 mm 2 m/s 672 mmHg 80%
07:00 +21°C° 0.1 mm 2 m/s 672 mmHg 81%
08:00 +23°C° 0.1 mm 2 m/s 673 mmHg 73%
09:00 +25°C° 0.1 mm 2 m/s 673 mmHg 65%
10:00 +27°C° 0.1 mm 3 m/s 674 mmHg 57%
11:00 +28°C° 0 mm 3 m/s 674 mmHg 52%
12:00 +29°C° 0 mm 3 m/s 673 mmHg 48%
13:00 +30°C° 0 mm 3 m/s 673 mmHg 44%
14:00 +29°C° 0.1 mm 3 m/s 672 mmHg 47%
15:00 +28°C° 0.1 mm 2 m/s 672 mmHg 50%
16:00 +28°C° 0.1 mm 2 m/s 671 mmHg 54%
17:00 +26°C° 0.3 mm 2 m/s 671 mmHg 66%
18:00 +23°C° 0.3 mm 1 m/s 671 mmHg 77%
19:00 +21°C° 0.3 mm 1 m/s 671 mmHg 89%
20:00 +21°C° 0 mm 1 m/s 671 mmHg 88%
21:00 +20°C° 0 mm 1 m/s 672 mmHg 87%
22:00 +20°C° 0 mm 1 m/s 672 mmHg 87%
23:00 +20°C° 0.1 mm 1 m/s 672 mmHg 86%
Arată mai mult